User: anonymous   Login
Location: Unspecified
(0.0000°N, 0.0000°E)
Time: 07:40:13
(UTC+00:00)
Language:

Feng Yun - Orbit

View from above orbital plane
View from above orbital plane
View from above satellite
View from above satellite

Ground track
Ground track

The orbit data is extracted from the following two-line orbital elements,

1 24834U 97029A   17289.22704978 -.00000218 +00000-0 +00000-0 0  9996
2 24834 013.8172 029.7651 0100908 162.4557 222.9570 00.96051302072993
Epoch (UTC): 16 October 2017 05:26:57
Eccentricity: 0.0100908
inclination: 13.8172°
perigee height: 36574 km
apogee height: 37450 km
right ascension of ascending node: 29.7651°
argument of perigee: 162.4557°
revolutions per day: 0.96051302
mean anomaly at epoch: 222.9570°
orbit number at epoch: 7299

The dashed part of the orbit path shows where the satellite is in the earth's shadow,  

DLR